Location: ??????
(30.5519°N, 47.7720°E)
Time: 18:06:24
(UTC+00:00)

Cosmos 1655 Rocket - Pass Details

Date: 24 January 2021
Orbit: 971 x 1006 km, 83.0° (Epoch: 01 March)

Event Time Altitude Azimuth Distance (km) Brightness Sun altitude
Rises 16:02:30 0° 176° (S) 3,670 7.1 -22.4°
Reaches altitude 10° 16:05:02 10° 173° (S) 2,720 6.4 -22.9°
Maximum altitude 16:11:11 65° 92° (E) 1,064 3.9 -24.3°
Enters shadow 16:14:00 33° 23° (NNE) 1,572 4.8 -24.9°
